Regional Weather Roundup
Issued by NWS Grand Forks, ND

Home | Current Version | Previous Version | Text Only | Print | Product List | Glossary Off
Versions: 1 2 3 4 5 6 7 8 9 10 11 12 13 14 15 16 17 18 19 20 21 22 23 24 25 26 27 28 29 30 31 32 33 34 35 36 37 38 39 40 41 42 43 44 45 46 47 48 49 50

000
ASUS43 KFGF 230410
RWRFGF
PRAIRIE TO PINES  WEATHER ROUNDUP
NATIONAL WEATHER SERVICE EASTERN NORTH DAKOTA/GRAND FORKS ND
1100 PM CDT MON MAY 22 2017

 **SATELLITE DATA USED TO AUGMENT SKY COVER AT AUTOMATED STATIONS**
 *****  WEATHER ACROSS EASTERN NORTH DAKOTA  *****

CITY           SKY/WX    TMP DP  RH WIND       PRES   REMARKS
GRAND FORKS    CLOUDY    50  47  89 N12       29.92R
GRAND FRKS AFB CLOUDY    49  46  92 N16G23    29.93S
DEVILS LAKE    CLOUDY    49  43  80 N12       30.01R
FARGO          CLOUDY    49  47  93 N13       29.90R
WAHPETON ARPT  CLOUDY    46  43  87 NW6       29.90S
$$

 ***** WEATHER ACROSS CENTRAL AND WESTERN NORTH DAKOTA  *****

CITY           SKY/WX    TMP DP  RH WIND       PRES   REMARKS
BISMARCK       CLOUDY    54  41  61 NE13      30.05R
MINOT          FAIR      50  37  61 N5        30.08R
JAMESTOWN      CLOUDY    48  43  82 N13       29.97R
MINOT AFB      CLOUDY    52  37  56 N5        30.08R
GARRISON         N/A     53  37  54 NE7       30.08R
WILLISTON      CLOUDY    58  36  43 N6        30.12R
DICKINSON      CLOUDY    53  35  50 NW9       30.08R
HETTINGER      CLOUDY    51  37  58 NW9       30.09S
$$

 *****  OTHER AIRPORT OBSERVATIONS IN OUR AREA  *****

CITY           SKY/WX    TMP DP  RH WIND       PRES   REMARKS
WALHALLA       NOT AVBL
GRAFTON AIRPOR MOCLDY    48  48 100 N13G20    29.96S
VALLEY CITY AR NOT AVBL
CANDO          NOT AVBL
CAVALIER APRT  CLOUDY    50  45  81 N13       29.98R
GWINNER        MOCLDY    48  46  93 MISG      29.93S
SHEYENNE NWR     N/A     49  46  90 N5        29.95S
ROLLA          CLOUDY    46  46 100 N9        30.05S
 ***** THE ABOVE OBSERVATIONS ARE NON NWS ARE NOT QUALITY
       CONTROLLED AND MAY MIS-REPORT RAIN FOR SNOW...
$$

  *****  WEATHER ACROSS NORTHERN MINNESOTA  *****

CITY           SKY/WX    TMP DP  RH WIND       PRES   REMARKS
FLAG ISLAND    CLOUDY    48  45  87 N20G26    29.90R
WARROAD        CLOUDY    46  43  87 N9G16     29.91R
ROSEAU         CLOUDY    48  43  81 N9        29.91R
HALLOCK        CLOUDY    48  46  93 N12G17    29.94S
THF RVR FALLS  CLOUDY    48  44  86 N13       29.91R
BAUDETTE       CLOUDY    47  45  93 N12       29.87R
WASKISH        CLOUDY    46  45  93 N5        29.86R
CROOKSTON      CLOUDY    48  46  93 N9        29.91S
STEPHEN NDAWN    N/A     48  45  87 N9          N/A
GREENBUSH NDAW   N/A     46  45  93 N9          N/A
$$
  *****  WEATHER ACROSS CENTRAL AND WEST MINNESOTA  *****

CITY           SKY/WX    TMP DP  RH WIND       PRES   REMARKS
FOSSTON        DRIZZLE   45  43  93 N8        29.89R
BEMIDJI        CLOUDY    45  44  97 NW5       29.86S
PARK RAPIDS    CLOUDY    46  42  86 NW5       29.86R
ELBOW LAKE     MOCLDY    46  45  94 W9        29.89S
WADENA         MOCLDY    43  43 100 NW3       29.86S
DETROIT LAKES  CLOUDY    45  45 100 NW6       29.88F
MOORHEAD       CLOUDY    48  46  93 NW10      29.90S
FERGUS FALLS   CLOUDY    46  46 100 N7        29.88S
MORRIS MN      FAIR      48  45  87 NW13      29.88S
STAPLES        DRIZZLE   45  41  87 NW7       29.86S
$$
  *****  WEATHER ELSEWHERE ACROSS MINNESOTA  *****

CITY           SKY/WX    TMP DP  RH WIND       PRES   REMARKS
DULUTH         CLOUDY    48  44  86 NW5       29.82S
INTRNTL FALLS  CLOUDY    48  45  89 N8        29.83S
ELY            CLOUDY    45  45 100 CALM      29.83S
CLOQUET        CLOUDY    48  43  81 CALM      29.83S
WHEATON        DRIZZLE   48  45  87 NW5       29.92S
BRAINERD       CLOUDY    48  43  82 N5        29.85R
HIBBING        CLOUDY    42  41  96 N5        29.83S
ALEXANDRIA     LGT RAIN  47  44  90 N8        29.88R
SAINT CLOUD    MOCLDY    47  42  83 NW5       29.84S
MINNEAPOLIS    CLOUDY    58  42  55 N5        29.83S
$$

  *****  WEATHER ACROSS SOUTH DAKOTA  *****

CITY           SKY/WX    TMP DP  RH WIND       PRES   REMARKS
SIOUX FALLS    CLOUDY    50  47  89 W7        29.92F
BROOKINGS      CLOUDY    49  44  83 NW9       29.93R
WATERTOWN      CLOUDY    47  42  83 NW14      29.92S
HURON          CLOUDY    50  44  80 N12       29.98R
SISSETON         N/A     48  47  96 N13       29.90S
ABERDEEN       CLOUDY    48  43  82 NW8       29.97R
MITCHELL       CLOUDY    53  45  74 N12       29.97R
PIERRE         CLOUDY    51  40  65 NW7       30.02R
MOBRIDGE       CLOUDY    51  42  71 W3        29.97F
RAPID CITY     MOCLDY    46  40  79 NW8       30.13R
$$

  *****  SOME WEATHER IN NEARBY STATES *****

CITY           SKY/WX    TMP DP  RH WIND       PRES   REMARKS
GLASGOW MT     FAIR      51  33  50 NE9       30.17R
GREAT FALLS MT FAIR      58  38  47 E3        30.19S
CHEYENNE WY    CLOUDY    40  33  76 N14       30.24R
SCOTTSBLUFF NE FAIR      43  37  79 NW6       30.18R
OMAHA NE       MOCLDY    56  51  84 NW7       29.90R
DES MOINES IA  CLOUDY    58  52  80 W3        29.86R
DAVENPORT IA   FAIR      59  53  80 S12       29.87F
CHICAGO IL     CLOUDY    60  53  77 SW8       29.89F
EAU CLAIRE WI  FAIR      52  46  80 CALM      29.81F
LA CROSSE WI   LGT RAIN  58  56  93 SW8       29.81R
$$

  *****  SOME NATIONAL WEATHER *****

CITY           SKY/WX    TMP DP  RH WIND       PRES   REMARKS
LA GUARDIA NY  CLOUDY    62  58  86 N9        29.94F
RALEIGH NC     TSTM      70  69  97 SW12      29.98R FOG
ATLANTA GA     LGT RAIN  69  68  96 NW3       29.95F
NEW ORLEANS LA LGT RAIN  72  71  97 SE10      29.88F
OKLAHOMA CITY  FAIR      59  58  96 N8        29.94F
ALBUQUERQUE NM FAIR      69  22  16 N18G24    30.09R
SALT LAKE CITY MOCLDY    67  42  40 E3        30.15R
LOS ANGELES CA CLOUDY    60  57  89 W9        29.94R
BOISE ID       FAIR      70  39  32 SE3       30.09S
SEATTLE WA     FAIR      72  52  49 NW5       30.05R
$$

*** WEATHER ACROSS MANITOBA...SASKATCHEWAN AND ONTARIO ***
                ***ONTARIO***

CITY           SKY/WX    TMP DP  RH WIND       PRES   REMARKS
GERALDTON      DRIZZLE   46  46 100 N8        29.79R FOG
THUNDER BAY    MOCLDY    48  46  93 W3        29.80R
SIOUX LOOKOUT  DRIZZLE   45  43  93 VRB5      29.89R
TORONTO        CLEAR     52  46  82 W6        29.94F
BIG TROUT LK   CLEAR     46  32  57 NE13G21   30.06R
PICKLE LAKE    NOT AVBL
DRYDEN         CLOUDY    45  45 100 NE17G26   29.87R
KENORA         LGT RAIN  46  43  87 NE12G17   29.91R
$$
                *** MANITOBA***

CITY           SKY/WX    TMP DP  RH WIND       PRES   REMARKS
BRANDON        MOCLDY    52  36  54 N5        30.08R
DAUPHIN        CLEAR     52  34  50 N8        30.10R
ISLAND LAKE    PTCLDY    55  32  41 E5        30.11R
PILOT MOUND      N/A     50  39  66 N13G20      N/A
THE PAS        PTCLDY    54  34  47 NE5       30.12R
THOMPSON       PTCLDY    50  34  53 E5        30.15S
WINNIPEG       MOCLDY    48  43  81 N12       30.01R
LYNN LAKE      CLEAR     52  32  46 SE7       30.11S
CHURCHILL      FOG       30  30 100 S10       30.22F VSB 1/4 WCI  21
GILLAM         PTCLDY    37  34  87 NE6       30.20F
$$
                ***SASKATCHEWAN***

CITY           SKY/WX    TMP DP  RH WIND       PRES   REMARKS
ESTEVAN        PTCLDY    48  37  66 CALM      30.13R
KINDERSLEY     PTCLDY    55  30  38 SE10      30.14S
LLOYDMINSTER   MOCLDY    61  37  41 S10       30.08S
PRINCE ALBERT  MOCLDY    54  36  50 NE2       30.11S
REGINA         PTCLDY    54  28  37 N6        30.14S
YORKTON        CLEAR     52  30  43 E2        30.14R
N. BATTLEFORD  CLEAR     52  37  58 SE7       30.13S
LA RONGE       MOCLDY    57  32  38 S7        30.08F
SASKATOON      MOCLDY    61  32  33 S6        30.14S
SWIFT CURRENT  CLEAR     54  30  40 SE6       30.18R
$$
NOTE: THESE ARE AUTOMATED STATIONS WITH LIMITED QUALITY CONTROL
      "FAIR" INDICATES FEW OR NO CLOUDS BELOW 12,000 FEET WITH NO
      SIGNIFICANT WEATHER AND/OR OBSTRUCTIONS TO VISIBILITY.
      SKY/WX - SKY CONDITION AND SIGNIFICANT WEATHER.
      TMP - AIR TEMPERATURE.    DP   - DEWPOINT TEMPERATURE.
      RH  - RELATIVE HUMIDITY.  PRES - PRESSURE.
      HX  - HEAT INDEX.         WCI  - WIND CHILL INDEX.
$



USA.gov is the U.S. government's official web portal to all federal, state and local government web resources and services.